Location: Holmbach
(49.5093°N, 8.8411°E)
Time: 05:12:48
(UTC+00:00)

Cosmos 1953 - Pass Details

Date: 17 June 2025
Orbit: 485 x 500 km, 82.5° (Epoch: 12 July)

Event Time Altitude Azimuth Distance (km) Brightness Sun altitude
Rises 21:17:07 0° 349° (NNW) 2,606 7.3 -11.7°
Reaches altitude 10° 21:19:14 10° 348° (NNW) 1,718 6.1 -11.8°
Maximum altitude 21:23:00 80° 262° (W) 516 2.2 -12.1°
Enters shadow 21:25:45 18° 176° (S) 1,304 3.7 -12.4°
